User: anonymous
Location: Unspecified
(0.0000°N, 0.0000°E)
Time: 04:23:54
(UTC+00:00)
Language:

KORONAS-FOTON - Orbit

View from above orbital plane
View from above orbital plane
View from above satellite
View from above satellite

Ground track
Ground track

The orbit data is extracted from the following two-line orbital elements,

1 33504U 09003A   14272.78588435  .00004060  00000-0  24003-3 0  1434
2 33504 082.4429 136.3334 0018925 291.6468 115.2709 15.11073496311513
Epoch (UTC): 29 September 2014 18:51:40
Eccentricity: 0.0018925
inclination: 82.4429°
perigee height: 520 km
apogee height: 546 km
right ascension of ascending node: 136.3334°
argument of perigee: 291.6468°
revolutions per day: 15.11073496
mean anomaly at epoch: 115.2709°
orbit number at epoch: 31151

The dashed part of the orbit path shows where the satellite is in the earth's shadow,  

DLR